Location: ???????
(55.0961°N, 37.8740°E)
Time: 07:01:27
(UTC+00:00)

Daily predictions for brighter satellites

Satellite Brightness Start Highest point End
(mag) Time Altitude Azimuth Time Altitude Azimuth Time Altitude Azimuth
BREEZE-M DEB (TANK) 3.9 14:51:29 10° WSW 14:54:07 40° S 15:00:06 10° ESE
AQUARIUS 4.1 14:54:59 10° SSE 14:59:23 80° ENE 15:03:49 10° NNW
Cosmos 2082 Rocket 3.6 14:55:30 10° WSW 15:00:35 33° NW 15:05:43 10° NNE
CZ-2D R/B 4.0 14:58:26 10° SE 15:02:01 35° ENE 15:05:41 10° N
Cosmos 192 4.3 14:57:18 10° NNW 15:02:11 65° ENE 15:07:01 10° SE
Cosmos 2233 Rocket 4.2 14:56:46 10° N 15:02:55 54° ENE 15:09:04 10° SSE
Cosmos 2242 Rocket 3.7 15:01:18 10° S 15:05:33 52° E 15:09:49 10° NNE
Meteor 1-21 Rocket 4.4 15:01:49 10° S 15:07:37 60° E 15:13:26 10° NNE
ATLAS 5 CENTAUR R/B 2.9 15:03:43 10° WNW 15:07:38 44° SW 15:12:25 10° SSE
Cosmos 1725 Rocket 4.0 15:02:49 10° N 15:09:05 78° ENE 15:15:22 10° SSE
Cosmos 2297 Rocket 3.6 15:06:36 10° SE 15:10:04 17° E 15:13:31 10° ENE
NOAA 6 4.5 15:05:49 10° SE 15:10:35 39° ENE 15:15:23 10° N
In-Cosmos 22 Rocket 4.2 15:05:09 10° S 15:10:39 76° E 15:16:20 10° NNE
IRS-1C 4.3 15:05:32 10° SSE 15:10:51 81° WSW 15:16:14 10° NNW
SAR-Lupe-4 3.6 15:07:22 10° SSE 15:10:53 60° ENE 15:14:26 10° N
Spot 4 Rocket 4.3 15:07:09 10° SE 15:12:02 47° ENE 15:16:56 10° N
Meteor 2-16 Rocket 4.4 15:06:20 10° S 15:12:23 71° E 15:18:27 10° NNE
Cosmos 158 Rocket 4.4 15:09:19 10° S 15:13:47 38° ESE 15:18:17 10° NE
SL-08 R/B 4.4 15:09:36 10° N 15:15:49 71° ENE 15:21:55 10° SSE
Cosmos 1674 Rocket 4.1 15:12:13 10° SSE 15:16:13 36° E 15:20:17 10° NNE
UNK 3.7 15:11:39 10° NNE 15:16:14 85° ESE 15:20:49 10° SSW
SeaSat 1 3.0 15:11:49 10° SSE 15:16:41 65° WSW 15:21:35 10° NW
Cosmos 1356 Rocket 3.2 15:13:33 10° N 15:17:27 62° ENE 15:21:23 10° SSE
ARIANE 5 R/B 2.9 15:13:03 10° S 15:18:09 70° WSW 15:23:14 10° NNW
SJ-6F 4.3 15:14:28 10° SSE 15:18:25 89° WSW 15:22:22 10° NNW
Cosmos 2061 Rocket 4.1 15:16:15 10° N 15:22:38 63° ENE 15:28:54 10° SSE
NOSS 0 Rocket 4.0 15:16:21 10° NW 15:22:39 84° NE 15:28:54 10° SE
BREEZE-M DEB (TANK) 4.0 15:18:42 10° W 15:22:54 46° SSW 15:28:29 10° SE
Meteor 1-28 Rocket 4.0 15:20:39 10° N 15:23:52 47° WNW 15:27:03 10° SW
SL-16 R/B 3.2 15:18:34 10° NNE 15:24:39 59° WNW 15:30:43 10° SW
CZ-4C R/B 2.5 15:27:11 10° S 15:31:07 34° ESE 15:35:43 11° ENE
COSMOS 2428 3.0 15:26:37 10° NW 15:32:22 74° WSW 15:38:03 10° SSE
Cosmos 489 Rocket 4.5 15:26:37 10° SSW 15:32:49 83° ESE 15:39:06 10° NNE
Cosmos 2084 Rocket 4.5 15:29:07 10° W 15:32:59 35° NNW 15:36:45 11° NE
CARTOSAT-1 3.7 15:29:29 10° SE 15:33:32 49° ENE 15:37:37 10° N
Cosmos 2151 Rocket 3.6 15:29:02 10° N 15:33:34 85° E 15:38:04 10° SSE
Cosmos 1980 3.7 15:28:19 10° NNW 15:34:00 67° NE 15:39:38 10° SE
NOSS 3-4 (A) 3.7 15:30:00 10° NW 15:36:19 72° NNE 15:43:50 10° ESE
NOSS 3-4 (C) 3.7 15:30:14 10° NW 15:36:35 71° NE 15:44:08 10° ESE
Cosmos 1607 4.2 15:31:54 10° SSW 15:37:46 50° SE 15:43:43 10° NE
Cosmos 2237 Rocket 2.2 15:33:50 10° NNW 15:39:31 68° NE 15:45:11 10° SE
SPOT 5 4.0 15:35:49 10° ESE 15:39:44 25° NE 15:43:50 10° N
DNEPR-1 R/B 4.1 15:36:24 10° NW 15:40:51 52° NNE 15:45:32 13° ESE
Cosmos 2292 Rocket 3.0 15:40:31 10° SSW 15:43:23 66° WNW 15:46:34 10° N
Cosmos 1455 Rocket 3.2 15:45:56 10° N 15:50:06 46° ENE 15:54:15 10° SSE
Cosmos 1782 3.8 15:49:08 10° NNE 15:51:57 21° ENE 15:52:10 21° ENE
SPOT 1/Viking Rocket 4.4 15:47:16 10° S 15:52:16 54° W 15:57:19 10° NNW
SL-19 R/B 4.4 15:46:48 10° SSE 15:52:56 78° ENE 15:58:50 10° NNW
ATLAS 2AS CENTAUR R/B 3.3 15:47:25 10° W 15:54:10 52° NNW 16:00:16 12° NE
Cosmos 1975 Rocket 4.2 15:51:31 10° SE 15:54:44 21° E 15:55:06 20° ENE
YAOGAN 1 2.9 15:53:49 10° S 15:58:03 67° WSW 16:02:19 10° NNW
YAOGAN 3 4.4 15:58:06 10° SSE 16:02:18 76° ENE 16:06:32 10° NNW
Okean 2 Rocket 3.4 15:58:06 10° NNW 16:02:30 68° W 16:06:50 10° S
Okean 1 Rocket 3.2 15:58:51 10° NNW 16:03:17 76° W 16:07:38 10° S
SL-16 R/B 2.7 15:58:18 10° NNW 16:03:39 41° NE 16:06:58 21° E
Cosmos 2221 Rocket 3.6 15:59:30 10° S 16:03:55 63° E 16:08:23 10° NNE
ARIANE 6 FM1 Upper Stage 3.1 16:03:00 10° NW 16:06:49 43° NNE 16:08:26 28° ENE
Cosmos 2227 Rocket 3.4 16:04:53 10° SSE 16:08:24 20° ESE 16:08:24 20° ESE
SJ-6B 2.5 16:05:46 10° SSE 16:09:09 56° ENE 16:12:33 10° N
Cosmos 1867 3.6 16:06:29 10° SW 16:11:56 85° NW 16:16:24 16° NE
Sich 1 Rocket 4.1 16:09:12 10° NNW 16:13:44 66° W 16:18:15 10° S
COSMO-SKYMED 1 2.3 16:09:36 10° NNE 16:13:45 78° ESE 16:17:52 10° SSW
USA 267 3.2 16:09:48 20° ENE 16:14:40 88° SSE 16:21:15 10° WSW
Cosmos 2228 3.1 16:11:05 10° N 16:15:08 46° ENE 16:18:12 16° SE
Lacrosse 5 rocket 0.8 16:11:43 10° WSW 16:15:14 82° SSE 16:16:32 37° ENE
USA 290 2.9 16:14:05 10° SW 16:17:13 52° WNW 16:19:48 14° NNE
PSLV R/B 3.9 16:15:01 10° S 16:19:05 62° WSW 16:23:11 10° NNW
SKYMED 2 4.2 16:17:49 10° N 16:22:06 58° WNW 16:26:23 10° SSW
Cosmos 2346 Rocket 4.4 16:16:19 10° S 16:22:36 86° E 16:28:53 10° NNE
ADEOS 4.3 16:21:22 28° E 16:22:37 32° ENE 16:27:11 10° N
ATLAS CENTAUR R/B 2.7 16:23:05 10° NNW 16:24:45 15° N 16:24:45 15° N
Resurs 01 Rocket 1.8 16:21:21 10° S 16:25:44 74° WSW 16:30:10 10° NNW
ERS-1 Rocket 3.7 16:26:50 29° ENE 16:27:18 30° ENE 16:31:37 10° N
Meteor 1-31 Rocket 2.6 16:28:53 48° ENE 16:28:53 48° ENE 16:32:11 10° N
Cosmos 2344 4.3 16:25:56 10° SSE 16:31:54 25° ESE 16:32:00 25° ESE
CZ-4B R/B 3.7 16:30:46 32° E 16:31:54 36° ENE 16:36:42 10° N
Terra 2.8 16:33:51 27° NE 16:33:51 27° NE 16:37:22 10° N
Cosmos 1025 Rocket 3.6 16:30:00 10° SSW 16:34:15 58° WNW 16:38:33 10° N
Cosmos 1570 Rocket 4.1 16:29:57 10° S 16:35:04 53° ESE 16:38:26 21° NE
Cosmos 1447 Rocket 4.5 16:29:33 10° S 16:35:41 86° W 16:41:54 10° N
Aureole 3 Rocket 3.8 16:31:30 10° NNW 16:35:50 48° W 16:39:11 10° SSW
CZ-4B DEB 4.3 16:33:52 27° SE 16:36:40 51° ENE 16:41:57 10° N
CZ-4 R/B 1.8 16:38:06 39° NE 16:38:06 39° NE 16:40:59 10° N
NOSS 3-3 (C) 3.7 16:37:41 10° SW 16:43:04 74° SE 16:46:36 28° NE
Cosmos 44 Rocket 4.2 16:40:18 10° S 16:43:53 32° SE 16:43:53 32° SE
DMSP B5D1-3 4.4 16:40:17 10° NNE 16:45:25 86° ESE 16:50:33 10° SSW
Cosmos 2082 Rocket 4.3 16:42:46 10° NW 16:46:27 17° NNW 16:50:10 10° NNE
Cosmos 1375 Rocket 4.4 16:41:22 10° SW 16:47:46 84° SE 16:52:06 23° NE
RESURS DK-1 3.8 16:44:31 10° NNW 16:47:08 23° NNE 16:47:08 23° NNE
CSL-04 Debris 4.1 16:44:36 20° SSE 16:48:23 70° ENE 16:53:48 10° NNW
CSL-04 Rocket 3.5 16:47:55 19° SSE 16:51:49 78° ENE 16:57:07 10° NNW
Cosmos 2297 Rocket 2.1 16:47:32 10° SSW 16:53:10 75° ESE 16:56:42 24° NE
Cosmos 2208 Rocket 4.0 16:48:21 10° S 16:53:27 54° ESE 16:54:40 44° ENE
Feng Yun 1-1 Rocket 4.3 16:50:50 32° SE 16:53:29 62° ENE 16:59:19 10° NNW
Cosmos 1943 3.7 16:48:43 10° NNW 16:54:05 40° NE 16:54:48 38° ENE
Cosmos 2034 Rocket 3.8 16:50:02 10° N 16:56:13 71° ENE 17:00:46 19° SSE
Cosmos 1816 Rocket 4.4 16:51:14 10° S 16:57:16 61° E 17:03:25 10° NNE
Okean-O 4.4 17:00:00 18° NNE 17:00:00 18° NNE 17:01:35 10° N
Okean O Rocket 3.3 17:06:12 20° NNE 17:06:12 20° NNE 17:07:54 10° N
Cosmos 773 Rocket 3.9 17:00:12 10° SSW 17:05:26 70° ESE 17:06:57 46° NE
Cosmos 1634 Rocket 4.1 16:59:21 10° N 17:05:34 52° ENE 17:06:30 48° E
NOSS 3-3 (A) 3.9 17:05:58 10° WSW 17:11:25 79° NW 17:14:17 35° NE
BREEZE-M DEB (TANK) 4.4 16:57:25 10° WSW 17:15:08 46° S 17:17:10 37° SE
PAYLOAD B 4.1 17:13:31 47° SSE 17:15:14 81° ENE 17:20:53 10° NNW
SPOT 5 3.1 17:14:50 31° S 17:17:12 72° WSW 17:22:19 10° NNW
CZ-4C R/B 2.3 17:14:18 10° WSW 17:18:56 65° NNW 17:20:41 42° NNE
Cosmos 836 Rocket 4.5 17:15:31 10° SSW 17:20:49 82° WNW 17:23:15 33° NNE
Cosmos 1544 Rocket 3.7 17:18:00 10° NNW 17:21:51 68° NW 17:21:51 68° NW
Cosmos 2237 Rocket 4.0 17:18:21 10° NW 17:23:11 30° WSW 17:28:02 10° SSW
Cosmos 1607 4.4 17:18:57 10° WSW 17:25:01 58° NNW 17:27:53 31° NNE
Cosmos 2263 Rocket 4.5 17:19:50 10° S 17:19:50 10° S 17:19:50 10° S
Cosmos 1782 3.9 17:23:27 10° NNW 17:26:14 38° WNW 17:26:14 38° WNW
IRS-1A Rocket 4.3 17:29:21 62° NE 17:29:21 62° NE 17:34:43 10° NNW
Cosmos 2279 Rocket 4.2 17:25:02 10° N 17:30:25 52° NE 17:30:25 52° NE
Cosmos 1975 Rocket 3.5 17:27:46 10° SSW 17:32:04 59° WNW 17:36:22 10° N
Cosmos 1833 Rocket 4.3 17:37:49 10° NNW 17:41:44 21° NNE 17:41:44 21° NNE
ARIANE 6 FM1 Upper Stage 4.2 17:42:04 10° WNW 17:44:27 33° WNW 17:44:27 33° WNW
ATLAS 2AS CENTAUR R/B 3.4 17:39:51 10° WNW 17:46:19 41° N 17:47:40 38° NNE
SL-16 R/B 2.7 17:42:28 10° NW 17:47:59 56° WSW 17:48:52 50° SSW
Lacrosse 5 rocket 3.5 17:48:39 10° W 17:49:58 21° WNW 17:49:58 21° WNW
Cosmos 2227 Rocket 2.9 17:46:34 10° SSW 17:50:18 44° SSW 17:50:18 44° SSW
USA 267 3.2 17:57:08 72° NE 17:57:40 77° N 18:04:13 10° W
ADEOS 4.1 18:02:06 56° W 18:02:06 56° W 18:07:01 10° NNW
ERS-1 Rocket 3.8 18:06:41 48° WNW 18:06:41 48° WNW 18:10:43 10° NNW
Terra 3.2 18:12:27 34° NW 18:12:27 34° NW 18:15:19 10° NNW
CZ-4 R/B 3.9 18:13:06 18° WNW 18:13:06 18° WNW 18:14:38 10° NW
CZ-4B R/B 3.8 18:12:36 50° W 18:12:36 50° W 18:17:33 10° NNW
Cosmos 2082 Rocket 4.3 18:28:54 10° NNW 18:32:04 18° N 18:32:04 18° N
Cosmos 2297 Rocket 3.7 18:32:39 10° WSW 18:37:45 33° NW 18:38:32 32° NNW
Cosmos 1943 4.3 18:32:47 10° NW 18:36:36 40° WNW 18:36:36 40° WNW
Okean O Rocket 4.3 18:43:26 16° NNW 18:43:26 16° NNW 18:44:20 10° NNW
Cosmos 2344 4.3 18:37:41 10° SW 18:42:04 38° SW 18:42:04 38° SW
CZ-4C R/B 4.0 19:03:09 10° WNW 19:05:39 26° NW 19:05:39 26° NW
ATLAS 2AS CENTAUR R/B 4.1 19:31:30 10° NW 19:35:05 32° NW 19:35:05 32° NW
ACS3 Solar Sail 4.3 22:44:05 10° NNE 22:44:52 13° NNE 22:44:52 13° NNE
CENTAUR R/B 4.0 23:44:21 36° NE 23:44:21 36° NE 23:48:56 10° NE
SL-16 R/B 4.4 23:55:35 22° N 23:55:35 22° N 23:57:48 10° N
